Weather in Botieve

Ukraine / Zaporizhia Region     46°40′53″N   35°49′58″E
temp.,
°C
wind,
m/s
gust,
m/s
humid.,
%
clouds,
%
prec.,
mm/h
press.,
hPa
HPBL,
m
5 march, fri
fri523:00+4sw7148211 0.0 1015529
02:00+4sw614859 0.0 1015538
05:00+4sw6139049 0.0 1014456
08:00+6sw5108675 0.0 1014517
11:00+8sw577297 0.0 1014736
14:00+10ssw566597 0.0 1013672
17:00+9s476983 0.0 1012276
20:00+7sw348091 0.0 101376
6 march, sat
sat623:00+6sw4888100 0.0 1012214
02:00+5sw4109199 0.0 1011300
05:00+5wsw41190100 0.0 1011324
08:00+5nw71082100 0.0 1013746
11:00+4nnw81167100 0.0 1017974
14:00+4nnw81152100 0.0 10191370
17:00+2nnw71043100 0.0 10211434
20:00−1nnw4105666 0.0 1025494
7 march, sun
sun723:00−1nw48620 0.0 1026345
02:00−2w38600 0.0 1027298
05:00−2w48600 0.0 1027244
08:000w58460 0.0 1027589
11:00+4w710390 0.0 10261775
14:00+5w7104013 0.0 10241746
17:00+3w59400 0.0 1022791
20:000wsw5124916 0.0 1021395
8 march, mon
mon823:000wsw614680 0.0 1020506
02:00+1wsw715720 0.0 1019596
05:00+1wsw6157936 0.0 1018493
08:00+3wsw8137266 0.0 1018862
11:00+7wsw8115167 0.0 10171608
14:00+9wsw8114654 0.0 10161932
17:00+7wsw6105299 0.1 1015868
20:00+4wsw61264100 0.1 1016432
9 march, tue
tue923:00+3wsw51074100 0.0 1016340
02:00+1wsw368366 0.0 1015126
05:000wsw348820 0.0 101580
08:00+3w477014 0.0 1015372
11:00+6wnw565889 0.0 10161205
14:00+5nw575594 0.1 10171299
17:00+4nnw454453 0.0 10171129
20:00+1nnw345630 0.0 101985